Flag for Moldova Weather past 2 weeks in Tiraspol, Moldova

Now
46 °F

Scattered clouds.


Feels Like: 40 °F
Forecast: 37 / 51 °F
Wind: 14 mph from Northeast

Location: Chisinau International Airport

Current Time: Apr 1, 2015 at 8:57:09 PM

Latest Report: Apr 1, 2015 at 8:00 PM


Visibility: N/A

Pressure: 29.65 "Hg

Humidity: 62%

Dew point: 34 °F

Location of TiraspolLocation

Historic Weather in Tiraspol — Graph

°F

Tiraspol temperature yesterday

Maximum temperature yesterday: 55 °F (at 4:00 PM)
Minimum temperature yesterday: 43 °F (at 8:00 AM)
Average temperature yesterday: 49 °F

Past Weeks' High & Low Weather Summary

 TemperatureHumidityPressure
High61 °F (Mar 22, 1:30 PM)93% (Mar 18, 8:30 PM)30.57 "Hg (Mar 18, 8:30 PM)
Low25 °F (Mar 24, 5:30 AM)19% (Mar 23, 4:30 PM)29.47 "Hg (Apr 1, 2:00 AM)
Average43 °F66%29.98 "Hg
* Reported Mar 17 6:00 PM — Apr 1 7:30 PM, Tiraspol, Weather by CustomWeather, © 2015

Note: Actual official high and low records may vary slightly from our data, if they occured in-between our weather recording intervals... More about our weather records

Advertising

Tiraspol weather history for previous 24 hours

 ConditionsComfort  
Time TempWeatherWind HumidityBarometerVisibility
7:30 PM
Wed, Apr 1
46 °FScattered clouds.16 mph62%29.62 "HgN/A
7:00 PM55 °FScattered clouds.14 mph26%29.59 "HgN/A
6:30 PM57 °FScattered clouds.15 mph25%29.56 "HgN/A
6:00 PM59 °FScattered clouds.17 mph34%29.56 "HgN/A
5:30 PM57 °FScattered clouds.14 mph39%29.53 "HgN/A
5:00 PM57 °FPartly sunny.9 mph36%29.56 "HgN/A
4:30 PM57 °FSprinkles. Partly sunny.10 mph36%29.56 "HgN/A
4:00 PM57 °FScattered clouds.8 mph36%29.56 "HgN/A
3:30 PM59 °FPassing clouds.14 mph34%29.56 "HgN/A
3:00 PM55 °FScattered clouds.3 mph44%29.56 "HgN/A
2:30 PM55 °FPassing clouds.3 mph44%29.56 "HgN/A
2:00 PM54 °FPassing clouds.2 mph47%29.59 "HgN/A
1:30 PM52 °FPassing clouds.5 mph50%29.59 "HgN/A
1:00 PM46 °FScattered clouds.2 mph66%29.59 "HgN/A
12:30 PM46 °FPartly sunny.2 mph66%29.59 "HgN/A
12:00 PM46 °FPartly sunny.6 mph62%29.59 "HgN/A
11:30 AM45 °FPartly sunny.13 mph71%29.59 "HgN/A
11:00 AM46 °FPartly sunny.17 mph62%29.59 "HgN/A
10:30 AM48 °FPartly sunny.20 mph62%29.56 "HgN/A
10:00 AM50 °FScattered clouds.9 mph67%29.53 "HgN/A
9:30 AM50 °FScattered clouds.6 mph62%29.53 "HgN/A
9:00 AM48 °FPassing clouds.3 mph66%29.50 "HgN/A
8:30 AM46 °FSunny.3 mph71%29.50 "Hg10 mi
8:00 AM46 °FSunny.No wind66%29.47 "Hg10 mi
7:30 AM45 °FClear.5 mph76%29.47 "Hg10 mi
7:00 AM43 °FPassing clouds.3 mph76%29.50 "HgN/A
6:30 AM45 °FClear.8 mph76%29.47 "Hg10 mi
6:00 AM43 °FClear.6 mph76%29.47 "Hg10 mi
5:30 AM45 °FClear.5 mph71%29.47 "Hg10 mi
5:00 AM43 °FClear.No wind81%29.47 "Hg10 mi
4:30 AM43 °FPassing clouds.3 mph81%29.47 "HgN/A
4:00 AM43 °FClear.2 mph81%29.47 "Hg10 mi
3:30 AM45 °FPassing clouds.7 mph76%29.50 "HgN/A
3:00 AM43 °FClear.9 mph81%29.50 "Hg10 mi
2:30 AM43 °FClear.10 mph81%29.50 "Hg10 mi
2:00 AM43 °FClear.7 mph81%29.47 "Hg10 mi
1:30 AM45 °FClear.6 mph76%29.50 "Hg10 mi
1:00 AM45 °FClear.6 mph76%29.53 "Hg10 mi
12:30 AM45 °FClear.9 mph71%29.50 "Hg10 mi
12:00 AM46 °FPassing clouds.7 mph66%29.53 "HgN/A
11:30 PM
Tue, Mar 31
46 °FClear.8 mph66%29.53 "Hg10 mi
11:00 PM46 °FClear.9 mph71%29.56 "Hg10 mi
10:30 PM46 °FClear.9 mph71%29.56 "Hg10 mi
10:00 PM48 °FClear.13 mph66%29.56 "Hg10 mi
9:30 PM48 °FClear.14 mph66%29.56 "Hg10 mi
9:00 PM50 °FClear.15 mph58%29.56 "Hg10 mi
8:30 PM50 °FPassing clouds.14 mph54%29.59 "HgN/A
8:00 PM50 °FPassing clouds.10 mph54%29.59 "HgN/A
Weather by CustomWeather, © 2015

See weather overviewHow to use our weather pages